Regional Weather Roundup
Issued by NWS Midland/Odessa, TX

Skip options and go directly to product.
Home | Oldest Version | Previous Version | Current Version | All | Text Only | Save Text | Print | Product List | Glossary On

Skip product version selection by date and time.   
250
ASUS44 KMAF 250910
RWRMAF
MIDLAND AREA WEATHER ROUNDUP
NATIONAL WEATHER SERVICE MIDLAND TX
400 AM CDT WED MAY 25 2016

...IN SOUTHWEST TEXAS AND SOUTHEAST NEW MEXICO...

CITY           SKY/WX    TMP DP  RH WIND       PRES   REMARKS
ALPINE         CLOUDY    77  35  21 SW10      30.09S
ANDREWS        FAIR      71  71 100 S12       29.94S
ARTESIA        CLEAR     64  16  15 W13       29.95S
BIG SPRING     CLOUDY    70  67  89 S15       29.93S
CARLSBAD       CLEAR     69  14  12 W16       29.93S
DRYDEN           N/A     76  73  91 SE7       29.91F
FORT STOCKTON  CLOUDY    73  67  81 S12       29.92F
GUAD PASS      NOT AVBL
HOBBS          CLEAR     63  63 100 SW7       29.97F
MARFA          CLOUDY    60  38  43 CALM      30.10R
MIDLAND AIRPK  MOCLDY    76  69  79 S13       29.93S
MIDLAND INTL   MOCLDY    75  69  81 S10       29.92F HAZE
ODESSA         CLOUDY    75  69  81 S13       29.93F HAZE
PECOS          CLOUDY    66  29  25 SW5       29.91S
PRESIDIO       NOT AVBL
SEMINOLE       MOCLDY    68  66  93 SW8       29.95S
SNYDER           N/A     70  68  93 S6        29.91F
WINK           MOCLDY    72  66  81 MISG      29.89F
$$
...OTHER STATIONS IN TEXAS...

CITY           SKY/WX    TMP DP  RH WIND       PRES   REMARKS
ABILENE        CLOUDY    76  71  85 S20G26    29.89F
AMARILLO       CLEAR     56  34  43 S13       29.88R
AUSTIN         MOCLDY    75  74  96 S8        29.94F
BROWNSVILLE    CLOUDY    81  78  91 SE14      29.91F
CORPUS CHRISTI CLOUDY    80  77  90 SE8       29.92F
DALLAS FTW     CLOUDY    78  70  76 S17G23    29.92S
DEL RIO        CLOUDY    78  76  93 SE8       29.90S
EL PASO        PTCLDY    76  17  11 W20G25    30.02R
HOUSTON INT    MOCLDY    77  75  93 SE8       29.98S
LUBBOCK        PTCLDY    71  63  75 SW17      29.90F
SAN ANGELO     PTCLDY    76  72  87 SW9       29.90S FOG
SAN ANTONIO    CLOUDY    77  73  87 S13       29.96S
WACO           CLOUDY    76  71  85 S10       29.94F
WICHITA FALLS  NOT AVBL
$$
...OTHER LOCATIONS IN NEW MEXICO...

CITY           SKY/WX    TMP DP  RH WIND       PRES   REMARKS
ALAMAGORDO     CLEAR     61  19  20 SE7       30.04R
ALBUQUERQUE    CLEAR     61  15  16 N5        30.07S
CANNON AFB     CLEAR     63  25  23 W13       29.95R
CLOVIS         CLEAR     61  27  27 W15       29.95R
HOLLOMAN AFB   CLEAR     67  20  16 SE10      30.01R
ROSWELL        PTCLDY    62  23  22 W10       29.95R
RUIDOSO          N/A     54  18  24 SW9       30.15S
SANTA FE       CLEAR     41  14  33 VRB6      30.10R WCI  37
TRUTH OR CONSE CLEAR     62  19  19 NW10      30.03F
TUCUMCARI      CLEAR     63  24  22 W12       29.89F
$$

USA.gov is the U.S. government's official web portal to all federal, state and local government web resources and services.